When you browse on this site, cookies collect data to enhance your experience and personalize the content and advertising you see.
Visit our Privacy Policy to learn more. By continuing to use the site, you agree to this use of cookies and data.
  • en France
  • Liste des pays
  • À 7 jours
  • Température de l'eau
  • Carte météo
  • Widgets météo
  • user-avatar
    Se connecter

    Météo par heure à Russkiy

    Ce jour, 21 Février, Vendredi

    Heure Température Précipitation Vent Pression Humidité
    00:00 -1°C° 0 mm 2 m/s 750 mmHg 93%
    01:00 -2°C° 0 mm 2 m/s 750 mmHg 93%
    02:00 -2°C° 0 mm 2 m/s 750 mmHg 93%
    03:00 -2°C° 0 mm 2 m/s 750 mmHg 94%
    04:00 -2°C° 0 mm 2 m/s 750 mmHg 94%
    05:00 -2°C° 0 mm 2 m/s 750 mmHg 94%
    06:00 -2°C° 0 mm 2 m/s 750 mmHg 94%
    07:00 -2°C° 0 mm 2 m/s 750 mmHg 94%
    08:00 -1°C° 0 mm 2 m/s 750 mmHg 94%
    15:00 +2°C° 0 mm 2 m/s 750 mmHg 87%
    16:00 +1°C° 0 mm 2 m/s 750 mmHg 88%
    17:00 -1°C° 0 mm 2 m/s 750 mmHg 90%
    18:00 -1°C° 0 mm 2 m/s 750 mmHg 90%
    19:00 -1°C° 0 mm 2 m/s 750 mmHg 90%
    20:00 -1°C° 0 mm 2 m/s 751 mmHg 90%
    21:00 -1°C° 0 mm 2 m/s 751 mmHg 89%
    22:00 -2°C° 0 mm 2 m/s 751 mmHg 89%
    23:00 -2°C° 0 mm 2 m/s 751 mmHg 88%

    Demain, 22 Février, Samedi

    Heure Température Précipitation Vent Pression Humidité
    00:00 -2°C° 0 mm 2 m/s 751 mmHg 89%
    01:00 -2°C° 0 mm 2 m/s 751 mmHg 89%
    02:00 -2°C° 0 mm 2 m/s 752 mmHg 90%
    03:00 -2°C° 0 mm 2 m/s 752 mmHg 90%
    04:00 -2°C° 0 mm 2 m/s 751 mmHg 90%
    05:00 -2°C° 0 mm 2 m/s 751 mmHg 90%
    06:00 -2°C° 0 mm 2 m/s 752 mmHg 90%
    07:00 -2°C° 0 mm 2 m/s 752 mmHg 89%
    08:00 -2°C° 0 mm 2 m/s 752 mmHg 89%
    09:00 -1°C° 0 mm 2 m/s 752 mmHg 85%
    10:00 0°C° 0 mm 3 m/s 752 mmHg 82%
    11:00 0°C° 0 mm 3 m/s 752 mmHg 78%
    12:00 +1°C° 0 mm 3 m/s 752 mmHg 76%
    13:00 +1°C° 0 mm 3 m/s 751 mmHg 74%
    14:00 0°C° 0 mm 4 m/s 751 mmHg 73%
    15:00 -1°C° 0 mm 4 m/s 751 mmHg 76%
    16:00 -1°C° 0 mm 4 m/s 750 mmHg 79%
    17:00 -1°C° 0 mm 3 m/s 750 mmHg 83%
    18:00 -2°C° 0 mm 4 m/s 749 mmHg 82%
    19:00 -4°C° 0 mm 5 m/s 749 mmHg 81%
    20:00 -4°C° 0 mm 5 m/s 749 mmHg 80%
    21:00 -4°C° 0 mm 6 m/s 748 mmHg 79%
    22:00 -4°C° 0 mm 6 m/s 747 mmHg 79%
    23:00 -4°C° 0 mm 7 m/s 746 mmHg 78%

    Après-demain, 23 Février, Dimanche

    Heure Température Précipitation Vent Pression Humidité
    00:00 -3°C° 0 mm 7 m/s 745 mmHg 79%
    01:00 -4°C° 0 mm 8 m/s 744 mmHg 79%
    02:00 -4°C° 0 mm 9 m/s 743 mmHg 80%
    03:00 -4°C° 0.1 mm 9 m/s 741 mmHg 83%
    04:00 -4°C° 0.1 mm 10 m/s 740 mmHg 86%
    05:00 -4°C° 0.1 mm 10 m/s 739 mmHg 89%
    06:00 -4°C° 0.8 mm 10 m/s 738 mmHg 91%
    07:00 -4°C° 0.8 mm 10 m/s 737 mmHg 93%
    08:00 -4°C° 0.8 mm 10 m/s 736 mmHg 96%
    09:00 -3°C° 0.5 mm 10 m/s 735 mmHg 96%
    10:00 -3°C° 0.5 mm 9 m/s 734 mmHg 96%
    11:00 -2°C° 0.5 mm 8 m/s 733 mmHg 97%
    12:00 -2°C° 0.6 mm 7 m/s 733 mmHg 96%
    13:00 -1°C° 0.6 mm 5 m/s 733 mmHg 95%
    14:00 -1°C° 0.6 mm 4 m/s 732 mmHg 95%
    15:00 -1°C° 0 mm 4 m/s 732 mmHg 94%
    16:00 -1°C° 0 mm 4 m/s 732 mmHg 92%
    17:00 -2°C° 0 mm 4 m/s 732 mmHg 91%
    18:00 -2°C° 0 mm 4 m/s 733 mmHg 89%
    19:00 -2°C° 0 mm 4 m/s 733 mmHg 88%
    20:00 -2°C° 0 mm 5 m/s 734 mmHg 86%
    21:00 -2°C° 0 mm 5 m/s 733 mmHg 86%
    22:00 -4°C° 0 mm 5 m/s 733 mmHg 87%
    23:00 -4°C° 0 mm 5 m/s 733 mmHg 87%

    24 Février, Lundi

    Heure Température Précipitation Vent Pression Humidité
    00:00 -4°C° 0 mm 5 m/s 733 mmHg 88%
    01:00 -4°C° 0 mm 5 m/s 733 mmHg 89%
    02:00 -4°C° 0 mm 5 m/s 733 mmHg 89%
    03:00 -3°C° 0 mm 4 m/s 733 mmHg 90%
    04:00 -3°C° 0 mm 4 m/s 732 mmHg 90%
    05:00 -3°C° 0 mm 4 m/s 732 mmHg 91%
    06:00 -3°C° 0 mm 4 m/s 732 mmHg 91%
    07:00 -4°C° 0 mm 4 m/s 732 mmHg 91%
    08:00 -4°C° 0 mm 4 m/s 733 mmHg 90%
    09:00 -3°C° 0 mm 4 m/s 733 mmHg 89%
    10:00 -2°C° 0 mm 4 m/s 733 mmHg 87%
    11:00 -2°C° 0 mm 4 m/s 733 mmHg 85%
    12:00 -1°C° 0 mm 4 m/s 733 mmHg 83%
    13:00 -1°C° 0 mm 4 m/s 733 mmHg 81%
    14:00 0°C° 0 mm 4 m/s 733 mmHg 79%
    15:00 0°C° 0 mm 3 m/s 734 mmHg 82%
    16:00 0°C° 0 mm 3 m/s 734 mmHg 84%
    17:00 -1°C° 0 mm 3 m/s 735 mmHg 86%
    18:00 -1°C° 0 mm 3 m/s 735 mmHg 88%
    19:00 -1°C° 0 mm 3 m/s 736 mmHg 91%
    20:00 -1°C° 0 mm 3 m/s 737 mmHg 93%
    21:00 -2°C° 0 mm 3 m/s 737 mmHg 92%
    22:00 -3°C° 0 mm 4 m/s 738 mmHg 90%
    23:00 -3°C° 0 mm 4 m/s 738 mmHg 89%

    25 Février, Mardi

    Heure Température Précipitation Vent Pression Humidité
    00:00 -3°C° 0 mm 4 m/s 739 mmHg 90%
    01:00 -4°C° 0 mm 3 m/s 739 mmHg 90%
    02:00 -4°C° 0 mm 3 m/s 739 mmHg 91%
    03:00 -4°C° 0 mm 3 m/s 740 mmHg 90%
    04:00 -2°C° 0 mm 3 m/s 741 mmHg 89%
    05:00 -2°C° 0 mm 3 m/s 741 mmHg 87%
    06:00 -2°C° 0 mm 3 m/s 742 mmHg 88%
    07:00 -2°C° 0 mm 3 m/s 742 mmHg 88%
    08:00 -2°C° 0 mm 3 m/s 743 mmHg 88%
    09:00 -1°C° 0 mm 3 m/s 743 mmHg 84%
    10:00 -1°C° 0 mm 3 m/s 743 mmHg 80%
    11:00 -1°C° 0 mm 3 m/s 744 mmHg 76%
    12:00 0°C° 0 mm 3 m/s 744 mmHg 75%
    13:00 0°C° 0 mm 3 m/s 744 mmHg 74%
    14:00 0°C° 0 mm 3 m/s 744 mmHg 73%
    15:00 0°C° 0 mm 3 m/s 744 mmHg 76%
    16:00 -1°C° 0 mm 2 m/s 743 mmHg 79%
    17:00 -1°C° 0 mm 2 m/s 743 mmHg 82%
    18:00 -2°C° 0 mm 3 m/s 743 mmHg 83%
    19:00 -2°C° 0 mm 3 m/s 743 mmHg 84%
    20:00 -3°C° 0 mm 4 m/s 743 mmHg 85%
    21:00 -4°C° 0 mm 5 m/s 743 mmHg 84%
    22:00 -4°C° 0 mm 5 m/s 743 mmHg 82%
    23:00 -4°C° 0 mm 6 m/s 743 mmHg 81%

    26 Février, Mercredi

    Heure Température Précipitation Vent Pression Humidité
    00:00 -4°C° 0 mm 6 m/s 743 mmHg 81%
    01:00 -4°C° 0 mm 6 m/s 742 mmHg 80%
    02:00 -4°C° 0 mm 6 m/s 742 mmHg 79%
    03:00 -4°C° 0 mm 6 m/s 742 mmHg 81%
    04:00 -4°C° 0 mm 5 m/s 741 mmHg 83%
    05:00 -4°C° 0 mm 5 m/s 741 mmHg 85%
    06:00 -4°C° 0 mm 5 m/s 741 mmHg 84%
    07:00 -3°C° 0 mm 6 m/s 741 mmHg 83%
    08:00 -3°C° 0 mm 6 m/s 741 mmHg 81%
    09:00 -3°C° 0 mm 6 m/s 741 mmHg 79%
    10:00 -2°C° 0 mm 6 m/s 740 mmHg 77%
    11:00 -1°C° 0 mm 6 m/s 740 mmHg 75%
    12:00 -1°C° 0 mm 6 m/s 740 mmHg 75%
    13:00 -1°C° 0 mm 6 m/s 740 mmHg 75%
    14:00 -1°C° 0 mm 6 m/s 740 mmHg 75%
    15:00 -1°C° 0 mm 6 m/s 739 mmHg 75%
    16:00 -1°C° 0 mm 6 m/s 739 mmHg 75%
    17:00 -1°C° 0 mm 6 m/s 739 mmHg 76%
    18:00 -1°C° 0 mm 6 m/s 739 mmHg 79%
    19:00 -1°C° 0 mm 6 m/s 739 mmHg 82%
    20:00 -1°C° 0 mm 6 m/s 739 mmHg 85%
    21:00 -1°C° 0.1 mm 6 m/s 738 mmHg 89%
    22:00 -2°C° 0.1 mm 6 m/s 738 mmHg 93%
    23:00 -2°C° 0.1 mm 6 m/s 738 mmHg 97%
    Voir plus